| time (UTC) | temp F | wind direction | speed MPH | gust MPH | rain 1hr in | rain 24hr in | rain mn in | humidity % | barometer mb |
| 20260506013333 | 60 | 210 | 20.0 | 33.0 | 0.00 | 0.00 | 0.00 | 70 | 298.5 |
| 20260506011833 | 60 | 210 | 20.0 | 33.0 | 0.00 | 0.00 | 0.00 | 70 | 298.5 |
| 20260506010335 | 60 | 210 | 20.0 | 33.0 | 0.00 | 0.00 | 0.00 | 70 | 298.5 |
| 20260506004832 | 62 | 200 | 20.0 | 35.0 | 0.00 | 0.00 | 0.00 | 67 | 298.3 |
| 20260506003333 | 62 | 200 | 20.0 | 35.0 | 0.00 | 0.00 | 0.00 | 67 | 298.3 |
| 20260506000333 | 62 | 200 | 20.0 | 35.0 | 0.00 | 0.00 | 0.00 | 67 | 298.3 |
| 20260505234834 | 62 | 200 | 24.0 | 37.0 | 0.00 | 0.00 | 0.00 | 65 | 298.1 |
| 20260505233333 | 62 | 200 | 24.0 | 37.0 | 0.00 | 0.00 | 0.00 | 65 | 298.1 |
| 20260505231833 | 62 | 200 | 24.0 | 37.0 | 0.00 | 0.00 | 0.00 | 65 | 298.1 |
| 20260505230440 | 62 | 200 | 24.0 | 37.0 | 0.00 | 0.00 | 0.00 | 65 | 298.1 |
| 20260505230333 | 62 | 200 | 24.0 | 37.0 | 0.00 | 0.00 | 0.00 | 65 | 298.1 |
| 20260505224833 | 64 | 210 | 26.0 | 45.0 | 0.00 | 0.00 | 0.00 | 63 | 298.0 |
| 20260505223333 | 64 | 210 | 26.0 | 45.0 | 0.00 | 0.00 | 0.00 | 63 | 298.0 |
| 20260505221834 | 64 | 210 | 26.0 | 45.0 | 0.00 | 0.00 | 0.00 | 63 | 298.0 |
| 20260505220333 | 64 | 210 | 26.0 | 45.0 | 0.00 | 0.00 | 0.00 | 63 | 298.0 |
| 20260505213334 | 64 | 200 | 23.0 | 36.0 | 0.00 | 0.00 | 0.00 | 61 | 297.9 |
| 20260505211834 | 64 | 200 | 23.0 | 36.0 | 0.00 | 0.00 | 0.00 | 61 | 297.9 |
| 20260505210333 | 64 | 200 | 23.0 | 36.0 | 0.00 | 0.00 | 0.00 | 61 | 297.9 |
| 20260505204833 | 64 | 190 | 23.0 | 32.0 | 0.00 | 0.00 | 0.00 | 63 | 298.0 |
| 20260505203426 | 64 | 190 | 23.0 | 32.0 | 0.00 | 0.00 | 0.00 | 63 | 298.0 |
| 20260505203334 | 64 | 190 | 23.0 | 32.0 | 0.00 | 0.00 | 0.00 | 63 | 298.0 |
| 20260505201833 | 64 | 190 | 23.0 | 32.0 | 0.00 | 0.00 | 0.00 | 63 | 298.0 |
| 20260505200334 | 64 | 190 | 23.0 | 32.0 | 0.00 | 0.00 | 0.00 | 63 | 298.0 |
| 20260505194834 | 64 | 190 | 15.0 | 23.0 | 0.00 | 0.00 | 0.00 | 65 | 298.4 |
| 20260505193334 | 64 | 190 | 15.0 | 23.0 | 0.00 | 0.00 | 0.00 | 65 | 298.4 |
| 20260505191833 | 64 | 190 | 15.0 | 23.0 | 0.00 | 0.00 | 0.00 | 65 | 298.4 |
| 20260505190333 | 64 | 190 | 15.0 | 23.0 | 0.00 | 0.00 | 0.00 | 65 | 298.4 |
| 20260505184835 | 64 | 190 | 15.0 | 0.0 | 0.00 | 0.00 | 0.00 | 68 | 298.5 |
| 20260505183333 | 64 | 190 | 15.0 | 0.0 | 0.00 | 0.00 | 0.00 | 68 | 298.5 |
| 20260505181941 | 64 | 190 | 15.0 | 0.0 | 0.00 | 0.00 | 0.00 | 68 | 298.5 |
| 20260505181833 | 64 | 190 | 15.0 | 0.0 | 0.00 | 0.00 | 0.00 | 68 | 298.5 |
| 20260505180334 | 64 | 190 | 15.0 | 0.0 | 0.00 | 0.00 | 0.00 | 68 | 298.5 |
| 20260505174834 | 64 | 190 | 15.0 | 0.0 | 0.00 | 0.00 | 0.00 | 67 | 298.6 |
| 20260505173332 | 64 | 190 | 15.0 | 0.0 | 0.00 | 0.00 | 0.00 | 67 | 298.6 |
| 20260505171834 | 64 | 190 | 15.0 | 0.0 | 0.00 | 0.00 | 0.00 | 67 | 298.6 |
| 20260505170419 | 64 | 190 | 15.0 | 0.0 | 0.00 | 0.00 | 0.00 | 67 | 298.6 |
| 20260505170333 | 64 | 190 | 15.0 | 0.0 | 0.00 | 0.00 | 0.00 | 67 | 298.6 |
| 20260505164904 | 66 | 180 | 12.0 | 0.0 | 0.00 | 0.00 | 0.00 | 65 | 298.8 |
| 20260505164833 | 66 | 180 | 12.0 | 0.0 | 0.00 | 0.00 | 0.00 | 65 | 298.8 |
| 20260505163334 | 66 | 180 | 12.0 | 0.0 | 0.00 | 0.00 | 0.00 | 65 | 298.8 |
| 20260505161906 | 66 | 180 | 12.0 | 0.0 | 0.00 | 0.00 | 0.00 | 65 | 298.8 |
| 20260505161833 | 66 | 180 | 12.0 | 0.0 | 0.00 | 0.00 | 0.00 | 65 | 298.8 |
| 20260505160430 | 66 | 180 | 12.0 | 0.0 | 0.00 | 0.00 | 0.00 | 65 | 298.8 |
| 20260505160333 | 66 | 180 | 12.0 | 0.0 | 0.00 | 0.00 | 0.00 | 65 | 298.8 |
| 20260505153333 | 64 | 180 | 10.0 | 0.0 | 0.00 | 0.00 | 0.00 | 70 | 298.9 |
| 20260505151834 | 64 | 180 | 10.0 | 0.0 | 0.00 | 0.00 | 0.00 | 70 | 298.9 |
| 20260505150332 | 64 | 180 | 10.0 | 0.0 | 0.00 | 0.00 | 0.00 | 70 | 298.9 |
| 20260505140411 | 62 | 190 | 12.0 | 0.0 | 0.00 | 0.00 | 0.00 | 70 | 298.8 |
| 20260505140333 | 62 | 190 | 12.0 | 0.0 | 0.00 | 0.00 | 0.00 | 70 | 298.8 |
| 20260505124833 | 57 | 190 | 6.0 | 0.0 | 0.00 | 0.00 | 0.00 | 83 | 298.8 |
| 20260505123333 | 57 | 190 | 6.0 | 0.0 | 0.00 | 0.00 | 0.00 | 83 | 298.8 |
| 20260505121832 | 57 | 190 | 6.0 | 0.0 | 0.00 | 0.00 | 0.00 | 83 | 298.8 |
| 20260505120425 | 57 | 190 | 6.0 | 0.0 | 0.00 | 0.00 | 0.00 | 83 | 298.8 |
| 20260505120333 | 57 | 190 | 6.0 | 0.0 | 0.00 | 0.00 | 0.00 | 83 | 298.8 |
| 20260505114834 | 55 | 240 | 5.0 | 0.0 | 0.00 | 0.00 | 0.00 | 86 | 298.8 |
| 20260505113332 | 55 | 240 | 5.0 | 0.0 | 0.00 | 0.00 | 0.00 | 86 | 298.8 |
| 20260505111834 | 55 | 240 | 5.0 | 0.0 | 0.00 | 0.00 | 0.00 | 86 | 298.8 |
| 20260505110332 | 55 | 240 | 5.0 | 0.0 | 0.00 | 0.00 | 0.00 | 86 | 298.8 |
| 20260505101915 | 53 | 190 | 7.0 | 0.0 | 0.00 | 0.00 | 0.00 | 89 | 298.5 |
| 20260505101833 | 53 | 190 | 7.0 | 0.0 | 0.00 | 0.00 | 0.00 | 89 | 298.5 |
| 20260505100500 | 53 | 210 | 7.0 | 0.0 | 0.00 | 0.00 | 0.00 | 93 | 298.5 |
| 20260505100333 | 53 | 210 | 7.0 | 0.0 | 0.00 | 0.00 | 0.00 | 93 | 298.5 |
| 20260505094833 | 53 | 210 | 7.0 | 0.0 | 0.00 | 0.00 | 0.00 | 93 | 298.5 |
| 20260505093333 | 53 | 210 | 7.0 | 0.0 | 0.00 | 0.00 | 0.00 | 93 | 298.5 |
| 20260505091924 | 53 | 210 | 7.0 | 0.0 | 0.00 | 0.00 | 0.00 | 93 | 298.5 |
| 20260505091833 | 53 | 210 | 7.0 | 0.0 | 0.00 | 0.00 | 0.00 | 93 | 298.5 |
| 20260505090333 | 53 | 210 | 7.0 | 0.0 | 0.00 | 0.00 | 0.00 | 93 | 298.5 |
| 20260505084835 | 53 | 200 | 8.0 | 0.0 | 0.00 | 0.00 | 0.00 | 89 | 298.5 |
| 20260505081837 | 53 | 200 | 8.0 | 0.0 | 0.00 | 0.00 | 0.00 | 89 | 298.5 |
| 20260505080333 | 53 | 200 | 8.0 | 0.0 | 0.00 | 0.00 | 0.00 | 89 | 298.5 |
| 20260505074907 | 53 | 210 | 7.0 | 0.0 | 0.00 | 0.00 | 0.00 | 86 | 298.5 |
| 20260505074833 | 53 | 210 | 7.0 | 0.0 | 0.00 | 0.00 | 0.00 | 86 | 298.5 |
| 20260505073334 | 53 | 210 | 7.0 | 0.0 | 0.00 | 0.00 | 0.00 | 86 | 298.5 |
| 20260505071853 | 53 | 210 | 7.0 | 0.0 | 0.00 | 0.00 | 0.00 | 86 | 298.5 |
| 20260505070334 | 53 | 210 | 7.0 | 0.0 | 0.00 | 0.00 | 0.00 | 86 | 298.5 |
| 20260505064835 | 53 | 200 | 8.0 | 0.0 | 0.00 | 0.00 | 0.00 | 86 | 298.6 |
| 20260505063334 | 53 | 200 | 8.0 | 0.0 | 0.00 | 0.00 | 0.00 | 86 | 298.6 |
| 20260505060334 | 53 | 200 | 8.0 | 0.0 | 0.00 | 0.00 | 0.00 | 86 | 298.6 |
| 20260505054835 | 53 | 200 | 14.0 | 0.0 | 0.00 | 0.00 | 0.00 | 86 | 298.7 |
| 20260505053332 | 53 | 200 | 14.0 | 0.0 | 0.00 | 0.00 | 0.00 | 86 | 298.7 |
| 20260505051833 | 53 | 200 | 14.0 | 0.0 | 0.00 | 0.00 | 0.00 | 86 | 298.7 |
| 20260505050437 | 53 | 200 | 14.0 | 0.0 | 0.00 | 0.00 | 0.00 | 86 | 298.7 |
| 20260505050333 | 53 | 200 | 14.0 | 0.0 | 0.00 | 0.00 | 0.00 | 86 | 298.7 |
| 20260505040333 | 55 | 200 | 10.0 | 0.0 | 0.00 | 0.00 | 0.00 | 80 | 298.8 |
| 20260505034833 | 55 | 220 | 10.0 | 0.0 | 0.00 | 0.00 | 0.00 | 77 | 298.8 |
| 20260505033333 | 55 | 220 | 10.0 | 0.0 | 0.00 | 0.00 | 0.00 | 77 | 298.8 |
| 20260505031834 | 55 | 220 | 10.0 | 0.0 | 0.00 | 0.00 | 0.00 | 77 | 298.8 |
| 20260505024833 | 55 | 210 | 13.0 | 0.0 | 0.00 | 0.00 | 0.00 | 75 | 298.8 |
| 20260505023333 | 55 | 210 | 13.0 | 0.0 | 0.00 | 0.00 | 0.00 | 75 | 298.8 |
| 20260505021834 | 55 | 210 | 13.0 | 0.0 | 0.00 | 0.00 | 0.00 | 75 | 298.8 |
| 20260505020337 | 55 | 210 | 13.0 | 0.0 | 0.00 | 0.00 | 0.00 | 75 | 298.8 |
| 20260505014833 | 55 | 200 | 13.0 | 25.0 | 0.00 | 0.00 | 0.00 | 72 | 298.6 |